DELTA 1 DEB, 2976

Orbit data source: Space-Track

DELTA 1 DEB, 2976 is space debris in SSO originally from a launch on Thu, 20 Apr 1967 UTC launched from the Air Force Western Test Range (AFWTR). Debris objects in space refer to the collection of defunct objects orbiting the Earth. Examples of debris include non-operational satellites, rocket bodies, and fragments generated from explosions, collisions, or faulty payload assembly.

Loading next visibility...
Identifier
2976, 1967-036C
Orbit
SSO
Last TLE update
4 days ago
Origin
Manufacturer
Unknown
Mission
Spacecraft
Bus & Motor
Unknown
Mass
Unknown
Launch date (UTC)
1967-04-20 (58 years ago)
Launch vehicle
Unknown
Launch site
Air Force Western Test Range (AFWTR)
Object type
Payload
Rocket body
Debris
Shape & HBR
Unknown
Radar Cross Section
Small (<0.1 m²)

Expand to show TLE details & history

TLE from 4 days ago
0 DELTA 1 DEB
1 02976U 67036C   25183.12082333 -.00000019  00000-0  13198-3 0  9993
2 02976 102.1255 307.6122 0098789  98.0545  75.9288 12.82089161722845
Epoch: 2025-07-02T02:53Z
TLE epoch observation values (Epoch: 2025-07-02T02:53:59.135Z)
Latitude
4.7263°
Longitude
164.72203°
Altitude
1,317.382 km
Speed
7.207 km/s
True Right ascension
08h 34m 29s
True Declination
4° 42' 01"
Sunlit
Object was in daylight at epoch
Visualization orbit readout
Latitude
20.18331°
Longitude
172.32685°
Altitude
1,307.251 km
Speed
7.218 km/s
Apparent Right ascension
06h 48m 31s
Apparent Declination
-24° 02' 26"
Sunlit
Object is in daylight
Visualization observer readout
Local Sidereal Time
10:31:12
Azimuth
229.552° WSW
Elevation
7.679°
Doppler factor
1
Orbital elements
Apogee altitude
1,406.763 km
Perigee altitude
1,254.455 km
Semi-major axis
7,708.746 km
Eccentricity
0.00988
Inclination
102.1255°
RAAN
307.6122°
Arg. of periapsis
98.0545°
True anomaly
Unknown
Mean anomaly
75.9288°
Eccentric anomaly
Unknown
Mean motion
3.20677 °/min
Orbital period
112.26 mins
BSTAR
0.00013198
Loading maneuver chart data...
Loading SW <> Apogee altitude chart data...
Loading historical data...
Loading historical data...
Loading historical data...
Loading historical data...
Loading historical data...
Loading historical data...
Loading historical data...
Other satellites on launch #36 in the year 1967 (1967-04-20 UTC)

DELTA 1 DEB Visibility forecast

Observer location: undefined°, undefined°

Span
Click to sort rows by Start time (UTC) header in descending order
Start Az.
Max El. time (UTC)
Max El. Az.
Max El.
End time (UTC)
End Az.
13 mins2025-07-06 07:14:59.303Z131.612° SE2025-07-06 07:21:59.303Z54.17° ENE35.532°2025-07-06 07:27:59.303Z355.346° N
11 mins2025-07-06 09:06:59.303Z205.013° SW2025-07-06 09:11:59.303Z261.593° W30.298°2025-07-06 09:17:59.303Z322.156° NNW
13 mins2025-07-06 20:51:59.303Z31.227° NE2025-07-06 20:57:59.303Z113.297° SE39.199°2025-07-06 21:04:59.303Z180.448° SSW
|